Prescott, AZ

9:58 PM MST on February 06, 2016 (GMT -0700)
Love

Weather History for KPRC - February, 2015

Change the Weather History Date:

Thursday, February 5, 2015

  Actual Average Record
Temperature  
Mean Temperature 52 °F 40 °F  
Max Temperature 72 °F 54 °F 76 °F (1963)
Min Temperature 31 °F 27 °F -1 °F (1985)
Degree Days  
Heating Degree Days 13    
Month to date heating degree days 77  
Since 1 July heating degree days 2169  
Cooling Degree Days 0    
Month to date cooling degree days 0  
Year to date cooling degree days 0  
Growing Degree Days 2 (Base 50)    
Moisture  
Dew Point 24 °F    
Average Humidity 41    
Maximum Humidity 63    
Minimum Humidity 14    
Precipitation  
Precipitation 0.00 in 0.04 in 0.90 in (1976)
Month to date precipitation 0.00 0.20  
Year to date precipitation 1.50 1.32  
Sea Level Pressure  
Sea Level Pressure 30.14 in    
Wind  
Wind Speed 4 mph (South)    
Max Wind Speed 13 mph    
Max Gust Speed 16 mph    
Visibility 10 miles    
Events      
T = Trace of Precipitation, MM = Missing Value Source: NWS Daily Summary

Daily Weather History Graph

Daily Weather History Graph

Search for Another Location

Airport or City:

Trip Planner

Search our weather history database for the weather conditions in past years. The results will help you decide how hot, cold, wet, or windy it might be!

Date:

Astronomy

Feb. 05, 2015 Rise Set
Actual Time 7:24 AM MST 6:02 PM MST
Civil Twilight 6:58 AM MST 6:29 PM MST
Nautical Twilight 6:28 AM MST 6:59 PM MST
Astronomical Twilight 5:59 AM MST 7:28 PM MST
Moon 7:55 PM MST (2/5) 8:07 AM MST (2/5)
Length of Visible Light 11h 30m
Length of Day
10h 38m
Full, 97% of the Moon is Illuminated
Feb 5
Full
Feb 11
Last Quarter
Feb 18
New
Feb 25
First Quarter
Mar 5
Full

Hourly Weather History & Observations

Time (MST) Temp. Windchill Dew Point Humidity Pressure Visibility Wind Dir Wind Speed Gust Speed Precip Events Conditions
12:53 AM 39.9 °F - 25.0 °F 55% 30.13 in 10.0 mi Calm Calm - N/A   Clear
1:53 AM 39.0 °F 35.7 °F 24.1 °F 55% 30.13 in 10.0 mi South 4.6 mph - N/A   Clear
2:53 AM 36.0 °F 32.1 °F 23.0 °F 59% 30.13 in 10.0 mi SW 4.6 mph - N/A   Clear
3:53 AM 36.0 °F 31.1 °F 23.0 °F 59% 30.14 in 10.0 mi SSW 5.8 mph - N/A   Clear
4:53 AM 36.0 °F 30.3 °F 21.9 °F 57% 30.14 in 10.0 mi SSW 6.9 mph - N/A   Clear
5:53 AM 36.0 °F 31.1 °F 21.0 °F 55% 30.16 in 10.0 mi SSW 5.8 mph - N/A   Clear
6:53 AM 34.0 °F - 21.0 °F 59% 30.21 in 10.0 mi Calm Calm - N/A   Clear
7:53 AM 32.0 °F 25.6 °F 21.9 °F 66% 30.24 in 10.0 mi South 6.9 mph - N/A   Clear
8:53 AM 43.0 °F 41.3 °F 26.1 °F 51% 30.22 in 10.0 mi SSW 3.5 mph - N/A   Clear
9:53 AM 51.1 °F - 26.1 °F 38% 30.20 in 10.0 mi Calm Calm - N/A   Clear
10:53 AM 57.0 °F - 26.1 °F 30% 30.19 in 10.0 mi North 4.6 mph - N/A   Clear
11:53 AM 63.0 °F - 23.0 °F 22% 30.17 in 10.0 mi Variable 3.5 mph - N/A   Clear
12:53 PM 66.0 °F - 21.0 °F 18% 30.12 in 10.0 mi Calm Calm - N/A   Clear
1:53 PM 70.0 °F - 21.9 °F 16% 30.08 in 10.0 mi Variable 4.6 mph - N/A   Clear
2:53 PM 69.1 °F - 19.0 °F 15% 30.08 in 10.0 mi Calm Calm - N/A   Clear
3:53 PM 71.1 °F - 19.0 °F 14% 30.06 in 10.0 mi ENE 3.5 mph - N/A   Clear
4:53 PM 69.1 °F - 19.9 °F 15% 30.06 in 10.0 mi SE 8.1 mph - N/A   Clear
5:53 PM 63.0 °F - 24.1 °F 23% 30.08 in 10.0 mi SSE 9.2 mph - N/A   Clear
6:53 PM 57.0 °F - 25.0 °F 29% 30.12 in 10.0 mi South 6.9 mph - N/A   Clear
7:53 PM 54.0 °F - 26.1 °F 34% 30.16 in 10.0 mi SSW 5.8 mph - N/A   Clear
8:53 PM 46.9 °F - 28.0 °F 48% 30.16 in 10.0 mi South 8.1 mph - N/A   Clear
9:53 PM 44.1 °F 40.8 °F 28.9 °F 55% 30.16 in 10.0 mi South 5.8 mph - N/A   Clear
10:53 PM 42.1 °F 40.2 °F 28.9 °F 60% 30.16 in 10.0 mi SSW 3.5 mph - N/A   Clear
11:53 PM 39.9 °F 36.7 °F 28.0 °F 63% 30.15 in 10.0 mi SSW 4.6 mph - N/A   Clear